GFSSW_2pvu_pres_222.txt.gz
Presure
139 115 147 98 132 143 115 144 131 128 140 140 122 103 119 123 111 125 131 111 118 122 126 110 99 121 117 100 106 120 121 120 122 114 106 108 101 116 114 103 103 94 100 109 109
225 171 183 94 91 90 128 148 125 95 134 142 137 106 126 119 120 127 115 114 111 120 126 115 108 105 118 123 105 108 112 122 106 106 94 112 116 101 110 105 117 106 100 100 109
222 224 173 160 162 143 177 167 142 161 128 132 134 141 127 116 122 115 109 113 122 119 118 122 117 112 113 109 118 112 131 118 121 122 119 113 123 127 110 116 110 108 104 102 105
215 227 225 214 221 181 169 104 174 148 172 133 132 141 100 130 116 119 109 125 118 116 116 110 122 122 120 98 102 114 116 120 123 121 105 114 129 116 124 117 108 91 95 92 102
234 229 235 229 216 224 187 170 179 178 155 137 177 138 127 129 127 124 137 123 120 126 121 115 111 119 120 117 105 114 122 106 116 108 123 102 100 111 122 96 95 100 97 96 103
238 237 239 228 241 229 196 196 175 171 147 177 149 182 155 124 128 139 136 115 110 129 132 117 120 112 119 121 117 113 115 115 103 96 112 114 109 110 115 121 94 105 100 104 95
230 233 239 241 254 231 246 222 202 182 199 171 157 166 141 166 130 120 98 134 128 119 113 128 116 116 111 118 118 116 111 109 101 84 79 100 106 114 109 97 111 116 113 101 101
232 236 234 235 252 260 259 245 237 231 203 187 187 178 160 156 162 131 132 136 131 123 105 122 126 119 119 114 111 131 109 105 108 112 104 113 94 114 75 121 110 106 103 100 102
281 324 280 252 238 247 259 262 246 242 228 243 179 209 164 168 147 161 132 149 131 127 136 130 140 130 137 124 112 112 125 103 101 106 94 94 115 95 102 96 97 102 106 112 112
327 308 368 372 379 373 265 272 260 267 246 236 255 214 167 184 179 148 158 137 135 131 141 112 123 124 106 112 113 108 114 122 113 103 105 98 105 116 102 104 90 83 131 114 115
313 321 362 364 415 424 432 428 275 260 271 269 252 230 241 203 187 206 169 185 123 122 131 142 126 117 116 114 132 124 114 120 121 112 113 104 118 118 120 97 94 113 108 83 101
285 281 350 356 406 422 429 417 415 293 262 257 269 246 233 245 209 196 202 184 153 190 99 139 164 131 124 117 121 132 107 115 121 120 133 99 91 120 104 93 94 98 103 105 103
259 254 348 349 392 427 419 426 418 410 306 266 250 265 256 244 220 208 211 196 181 148 145 127 108 100 119 123 134 117 123 124 112 129 118 129 116 120 112 108 105 112 101 102 103
266 259 350 350 388 418 384 393 426 437 420 290 260 249 244 258 247 220 217 218 210 188 172 87 66 70 146 107 106 139 115 110 106 122 128 124 111 102 132 112 104 96 94 102 97
230 226 295 345 357 407 390 415 434 430 433 408 280 253 241 251 255 243 231 213 236 213 212 188 141 137 75 131 93 104 122 135 89 140 146 117 108 90 115 119 121 103 107 121 123
255 275 288 340 347 371 383 409 439 561 273 492 388 291 266 246 237 238 243 244 226 221 219 213 190 120 145 125 123 100 136 93 123 136 100 109 119 116 88 108 111 113 111 115 112
253 266 277 296 348 350 393 388 407 545 486 522 470 405 111 285 247 233 277 249 200 235 228 183 208 198 152 79 122 81 138 146 142 123 119 115 125 113 108 98 103 106 108 115 101
249 254 271 283 352 342 369 386 377 497 150 83 167 478 387 264 269 284 242 299 250 245 83 88 74 216 194 167 169 125 117 87 99 139 126 88 91 116 102 114 144 109 117 106 100
242 251 262 279 306 337 335 387 390 423 456 367 381 450 479 387 256 262 298 252 299 255 244 235 235 227 82 196 198 133 66 75 145 74 69 150 132 114 76 71 84 85 119 112 114
231 248 251 269 281 334 345 353 384 416 407 412 419 362 372 436 384 273 259 279 196 296 271 242 234 85 228 209 71 75 129 74 121 134 151 83 99 102 94 93 97 118 95 85 101
227 236 251 264 275 287 338 337 362 380 389 398 395 411 389 409 400 381 267 320 342 254 295 276 244 236 216 65 208 90 165 115 101 121 107 158 113 131 99 106 126 133 119 110 143
226 232 249 253 272 270 310 343 337 351 399 371 381 383 379 377 381 371 254 344 254 329 347 297 309 238 231 229 229 222 206 204 121 83 151 109 142 156 118 116 117 122 82 68 92
219 220 238 255 252 280 270 312 334 332 351 400 351 209 311 366 369 373 372 357 340 290 346 360 370 273 121 236 236 235 230 209 213 207 117 158 136 104 144 114 144 116 118 91 79
213 221 234 235 247 268 260 275 333 330 338 362 385 355 332 343 358 355 353 357 346 332 336 349 358 354 376 333 259 83 227 149 218 218 211 190 156 144 126 127 134 130 133 140 143
214 219 220 232 242 268 260 267 284 332 322 347 354 376 362 344 343 342 344 345 348 336 328 341 336 350 353 411 285 253 238 232 237 237 179 224 226 158 150 139 137 95 92 97 139
208 212 219 231 236 244 255 268 262 348 323 319 343 352 347 363 344 336 323 332 332 342 339 326 342 335 359 165 391 317 306 238 244 238 243 236 231 230 189 138 186 152 132 140 137
212 210 213 231 235 231 262 270 263 299 334 320 321 338 356 340 381 347 341 326 332 331 330 337 331 331 337 350 338 393 359 130 213 236 213 244 240 233 218 207 148 144 154 146 95

GFSSW_2pvu_pres_225.txt.gz
Presure
195 145 151 137 183 123 176 148 157 146 130 130 125 111 138 116 118 126 127 118 109 116 120 108 117 111 125 118 114 138 156 110 116 116 123 101 107 103 115 95 115 105 104 101 97
195 207 183 202 169 134 151 144 150 149 141 135 128 127 135 132 118 113 126 125 111 112 118 123 107 117 110 117 112 145 137 110 109 117 111 132 109 90 106 102 107 115 109 108 101
225 210 213 205 171 207 160 147 147 140 153 168 125 148 129 132 135 116 139 126 114 117 110 114 121 107 115 109 118 104 110 94 104 110 125 124 123 114 97 108 117 122 105 105 93
225 222 228 232 204 174 225 183 118 142 99 181 146 136 161 129 131 137 117 127 127 128 124 111 124 117 113 105 107 120 117 109 130 114 109 119 114 107 116 102 126 108 116 114 93
227 232 231 217 225 230 209 175 181 186 173 165 145 120 145 148 107 131 137 133 124 131 124 123 111 121 118 114 103 110 113 116 114 117 123 130 124 131 111 116 125 114 105 95 96
225 231 235 232 227 221 238 222 222 218 180 188 168 142 159 133 154 143 135 135 137 126 123 113 118 111 118 115 118 105 111 108 98 109 119 116 126 131 105 119 117 116 114 101 109
219 225 219 232 237 250 226 235 247 215 224 189 181 154 140 130 124 139 124 142 133 142 127 109 122 127 114 116 114 118 104 108 99 112 109 120 107 115 131 123 97 102 98 104 103
253 248 245 248 234 240 234 249 233 241 227 217 167 193 179 162 147 128 165 126 138 146 130 134 114 124 116 114 107 111 117 107 115 102 115 111 121 123 110 121 109 94 121 113 114
251 250 275 278 286 270 256 247 247 256 239 251 202 197 160 176 178 160 160 173 146 144 133 134 137 121 127 119 113 110 109 113 82 109 106 88 87 123 118 111 104 116 114 101 116
240 237 279 273 273 335 326 365 285 253 262 251 251 244 234 192 170 173 184 173 141 163 169 124 130 142 109 119 123 99 105 110 116 107 105 107 109 79 103 117 103 110 101 95 118
254 254 267 272 317 324 271 404 412 407 256 258 267 248 254 240 194 198 162 177 189 169 167 151 122 123 115 115 125 117 73 102 122 119 113 88 84 118 110 109 107 104 117 113 83
241 238 252 267 302 318 407 396 306 473 477 452 299 266 251 250 232 214 216 195 179 169 151 184 156 129 120 103 124 111 117 119 125 114 116 104 91 120 110 113 101 105 94 76 113
228 228 230 272 293 305 397 393 382 444 445 446 443 401 257 273 258 254 232 215 214 203 192 168 87 139 123 133 126 116 125 124 112 128 116 76 119 118 129 103 111 105 81 79 116
221 242 237 258 277 303 383 383 379 430 426 442 536 447 439 261 277 255 258 234 219 217 214 198 117 122 83 131 137 140 126 75 112 118 116 105 112 115 112 117 108 104 107 95 105
217 220 233 264 287 292 349 369 367 412 148 119 511 493 436 416 258 265 271 257 248 227 226 218 146 173 156 125 110 136 97 114 107 131 136 88 108 97 114 103 103 112 80 92 98
201 222 236 243 274 285 302 362 361 406 396 452 472 466 420 416 271 267 265 270 243 249 234 225 220 214 204 161 161 87 125 145 133 112 80 124 123 117 112 102 118 109 94 115 112
208 225 230 240 268 294 288 338 362 360 404 464 493 443 455 408 280 396 267 265 263 239 236 238 232 216 214 189 213 125 77 80 94 85 145 100 105 102 104 110 115 119 110 114 112
197 211 223 227 254 276 278 287 369 351 380 415 470 243 399 467 392 392 377 264 257 261 235 236 237 244 214 212 212 204 100 190 125 75 100 86 154 124 101 116 110 99 110 118 105
204 208 224 226 243 257 283 286 288 358 361 412 449 442 419 421 392 381 375 341 261 252 257 253 232 232 239 226 216 211 205 118 88 130 136 84 83 101 71 106 75 112 120 120 119
204 210 213 223 233 246 263 277 286 323 349 368 62 341 207 416 431 387 370 357 266 254 245 246 252 236 220 229 240 232 222 204 136 120 138 194 158 150 136 119 118 130 100 88 136
199 210 213 211 224 236 251 257 283 287 364 343 388 383 447 383 433 434 376 363 354 269 259 241 246 247 245 131 114 139 149 242 219 76 214 144 82 110 89 102 93 112 112 101 89
191 209 208 210 217 225 240 261 265 284 298 353 342 393 378 421 384 398 420 373 355 352 270 257 247 237 239 71 73 88 235 90 91 81 118 226 127 214 71 102 121 119 128 145 114
182 205 208 211 217 217 233 243 270 282 275 301 357 342 387 378 388 408 362 414 397 405 359 330 262 237 101 159 209 74 60 206 235 240 244 249 240 139 109 173 127 89 79 112 139
199 197 210 212 216 218 228 245 255 260 270 286 336 350 347 368 387 366 381 392 392 390 366 375 360 269 257 237 234 233 238 243 71 82 105 246 251 222 137 188 159 136 117 117 79
203 200 207 209 209 229 216 246 253 257 270 273 287 353 343 355 364 390 344 359 365 373 370 368 368 366 347 272 262 241 233 236 318 248 220 230 252 252 243 195 127 199 169 132 123
192 195 201 221 212 226 229 241 248 254 263 278 273 289 350 338 342 323 389 345 339 355 353 361 354 363 369 384 248 275 346 233 276 316 301 251 256 254 247 240 213 86 142 176 203
189 201 201 218 218 218 225 236 248 246 253 272 260 276 355 335 323 334 332 359 341 331 341 345 348 343 342 350 365 378 251 257 302 255 299 310 256 117 167 251 242 217 202 180 153

GFSSW_2pvu_pres_231.txt.gz
Presure
165 145 98 153 192 147 125 146 119 126 120 128 140 124 100 98 123 117 125 108 118 104 108 109 115 104 103 112 117 120 109 139 98 127 119 108 110 112 101 96 113 103 104 113 109
169 209 199 198 173 135 158 176 119 127 138 126 120 133 106 89 103 108 126 94 100 108 98 110 109 114 110 105 113 113 121 132 139 106 152 108 109 122 114 107 98 102 89 109 101
213 204 221 209 189 123 99 169 134 135 123 149 125 132 129 105 122 110 110 128 100 104 110 106 110 107 107 109 111 113 118 116 126 112 133 154 114 107 123 116 110 99 108 103 115
214 218 205 201 219 133 188 150 146 175 89 179 165 130 132 120 153 132 131 125 119 129 124 110 123 104 104 115 108 108 116 116 118 134 110 118 138 113 109 111 125 112 96 107 113
230 222 217 216 207 224 200 204 211 193 184 183 162 176 191 177 149 145 128 131 150 119 134 128 138 115 111 100 108 111 107 114 117 109 124 118 131 114 118 100 116 114 118 114 107
224 227 230 232 230 214 208 211 204 187 194 180 204 180 190 125 120 135 130 138 125 141 130 110 117 130 111 113 101 110 115 114 116 113 118 119 121 128 150 106 104 116 126 125 101
219 231 232 220 224 234 225 213 213 205 207 197 212 191 186 180 168 125 161 135 150 158 146 128 126 118 105 120 116 103 104 111 115 115 113 122 112 104 108 114 129 105 109 121 118
218 219 222 229 231 230 234 241 238 217 209 209 224 190 190 200 188 141 182 134 90 133 154 147 126 127 120 111 126 114 111 112 110 117 113 121 120 111 121 112 115 125 116 118 118
222 234 217 220 217 221 224 228 232 232 244 229 216 214 210 209 198 211 200 139 200 148 130 165 143 135 132 120 110 130 114 103 94 105 120 112 128 128 112 115 118 118 117 122 131
242 242 246 242 246 257 261 246 254 233 227 235 246 248 251 220 217 219 202 161 149 187 141 135 137 166 115 125 125 119 89 103 97 107 85 109 122 110 118 98 118 108 103 113 114
220 217 217 228 229 230 237 241 246 250 260 276 283 282 247 259 261 218 215 221 201 204 143 184 96 154 123 147 131 131 129 116 77 102 121 109 86 122 125 120 102 88 109 105 112
212 217 214 220 215 221 224 223 230 247 254 267 285 353 369 329 382 289 274 235 222 219 203 171 129 155 156 132 152 119 128 121 127 118 116 108 114 71 86 80 125 127 112 97 91
206 207 205 210 212 209 206 221 225 225 241 248 292 350 355 438 426 440 417 318 270 245 227 221 220 134 157 157 137 134 146 130 135 128 114 109 115 121 98 106 110 97 123 106 111
210 212 217 198 199 209 212 212 210 222 226 258 306 327 385 433 457 549 468 462 374 274 274 247 229 221 80 170 142 147 137 143 122 137 119 124 109 106 89 88 88 117 112 109 93
213 208 220 212 207 212 212 214 215 224 235 252 299 323 347 427 544 516 538 568 475 442 296 276 272 238 225 221 175 206 189 128 155 144 134 123 108 98 69 102 108 111 111 87 87
201 206 207 215 221 203 203 196 218 224 228 266 289 311 319 425 497 467 455 508 513 455 460 305 270 106 189 164 163 204 82 149 97 122 184 119 117 121 110 93 105 86 118 81 121
193 204 205 207 205 206 207 203 210 216 230 262 282 298 306 365 465 440 427 437 495 454 442 445 326 261 261 250 251 223 219 158 193 119 143 186 132 118 110 113 103 118 113 73 113
193 200 196 210 209 201 203 216 196 209 234 252 274 283 299 313 408 435 417 418 456 446 421 443 435 310 258 240 237 248 236 214 212 140 85 75 101 120 108 138 143 109 111 109 107
202 193 202 200 202 209 199 204 220 195 225 236 265 269 293 292 338 416 433 409 406 413 433 439 452 385 301 254 247 242 220 77 83 84 153 177 137 149 135 77 85 95 116 106 118
193 195 192 195 204 205 208 207 204 215 221 228 253 260 280 283 294 366 422 385 387 391 413 426 418 422 417 294 255 251 62 237 251 74 230 104 89 171 99 106 130 140 103 130 118
188 193 192 189 187 199 207 206 202 218 220 236 252 258 274 281 278 298 359 408 373 371 379 413 401 404 386 386 278 250 246 248 234 251 257 225 126 108 115 100 139 133 99 101 116
193 193 184 194 189 192 200 204 204 216 215 223 241 253 255 271 273 284 300 368 403 381 371 393 392 376 406 377 376 277 247 244 242 236 243 86 183 68 74 125 186 107 140 138 102
207 201 201 195 202 188 200 198 206 200 212 215 242 246 243 258 263 169 283 300 357 402 380 359 376 384 378 384 382 348 297 245 239 247 243 245 253 238 212 207 134 140 179 149 101
203 199 190 206 215 237 207 204 201 205 209 240 243 241 236 250 260 266 176 171 336 354 385 389 374 377 385 364 359 367 356 331 266 73 242 246 245 149 116 159 153 109 73 104 188
208 201 208 207 205 223 195 196 203 205 195 245 242 238 235 243 253 257 271 159 306 366 347 355 387 395 375 402 343 355 363 355 325 298 241 187 250 112 96 219 240 223 204 115 125
208 207 202 201 209 214 207 180 202 222 241 235 231 246 247 244 248 251 83 273 285 320 360 350 353 371 413 373 381 399 353 374 347 319 312 248 241 249 62 240 228 230 239 93 73
189 184 200 199 217 208 206 206 207 227 235 231 234 232 235 237 246 254 248 258 275 290 354 356 347 359 363 364 373 368 398 394 362 350 344 144 275 245 98 244 243 239 167 201 235

GFSSW_2pvu_pres_234.txt.gz
Presure
122 116 126 114 113 126 132 137 129 124 121 114 115 124 123 115 119 118 112 92 124 122 108 99 108 110 112 103 110 111 117 123 128 134 127 145 153 124 115 112 101 99 106 101 105
122 121 194 125 129 130 185 120 121 159 132 131 135 124 124 120 114 114 111 97 107 101 109 97 112 104 109 110 105 107 116 122 118 123 137 118 126 103 115 116 112 108 106 104 107
209 207 222 197 196 188 117 131 118 169 163 131 124 134 130 128 147 127 123 120 127 106 125 120 107 111 106 110 111 116 110 116 121 123 121 140 146 130 152 109 116 112 112 108 103
212 211 213 100 203 173 124 193 133 176 93 136 150 145 166 151 164 150 130 116 101 124 115 124 98 106 114 106 112 103 118 113 118 119 122 119 138 110 140 140 104 121 125 120 93
230 216 207 209 209 212 170 197 190 184 122 127 181 139 178 144 117 125 126 160 124 120 101 120 117 106 102 112 112 109 102 108 119 114 125 113 115 137 113 154 121 110 107 115 122
222 230 221 221 207 211 221 211 193 200 192 202 198 179 162 152 141 121 142 122 113 132 108 110 125 110 102 97 102 121 113 109 101 105 119 119 116 110 133 108 140 121 144 113 112
228 221 227 196 228 218 214 216 213 136 149 196 221 174 125 191 157 186 138 158 119 139 144 136 119 123 112 124 104 109 114 111 105 108 107 117 118 113 105 123 119 141 170 102 106
221 220 227 229 225 231 231 225 222 218 207 201 205 144 129 180 175 177 179 115 188 125 140 168 147 129 116 124 111 122 113 115 108 114 110 112 114 124 120 109 117 141 119 172 101
222 223 229 228 222 227 235 235 234 235 226 218 211 210 209 221 215 202 196 197 133 186 127 167 171 137 141 111 120 118 123 110 96 115 114 118 117 122 128 121 113 115 122 108 112
239 208 212 218 221 221 224 227 228 230 239 246 246 248 236 220 221 213 218 226 191 188 210 170 190 190 132 136 167 145 107 100 99 127 117 117 116 84 115 123 120 114 105 96 120
231 232 240 252 249 246 257 259 259 268 223 222 224 228 241 242 250 264 223 225 216 209 206 194 126 203 184 147 133 131 110 114 105 117 132 117 109 117 121 125 106 125 119 117 90
216 217 219 225 228 230 235 236 237 235 239 246 250 257 259 257 262 247 248 263 249 236 225 231 161 162 123 172 170 150 134 115 112 82 130 111 113 67 121 109 114 104 121 111 121
207 213 212 214 215 215 217 229 228 235 225 226 230 233 237 240 254 277 284 304 292 266 276 241 236 227 107 131 145 137 157 122 131 101 96 131 118 117 95 114 114 114 110 118 113
200 200 204 205 205 209 210 207 213 210 214 217 219 222 225 234 243 266 276 401 547 620 476 406 279 241 234 238 78 174 170 150 138 149 134 126 117 123 118 120 124 125 92 90 80
211 206 202 198 201 202 205 199 203 205 206 209 219 216 215 236 241 287 353 505 484 558 575 534 439 335 281 244 168 154 196 145 194 142 142 147 99 91 66 130 70 110 98 111 110
202 226 228 209 203 217 216 221 226 220 212 206 202 205 219 226 267 302 331 492 465 475 522 594 467 429 351 297 271 239 166 185 192 167 90 125 135 132 112 108 129 121 118 124 114
205 202 201 204 205 200 197 220 205 210 217 214 215 230 228 226 290 295 317 380 453 466 439 484 465 442 419 425 305 259 232 223 225 173 146 202 157 125 134 115 110 127 113 130 70
201 199 194 196 198 201 211 199 209 213 218 214 225 217 234 237 280 280 307 331 433 417 404 428 460 412 426 434 388 287 212 72 73 208 158 180 60 64 104 133 113 121 129 112 88
193 193 192 197 203 203 199 201 204 207 213 217 217 213 239 236 269 266 291 308 340 413 411 399 432 449 443 374 381 460 244 259 250 236 226 224 159 188 126 131 139 140 123 120 120
185 188 194 197 200 197 194 195 193 194 200 212 211 206 217 265 265 257 282 299 313 372 405 403 409 403 432 420 380 364 333 317 226 182 254 244 223 107 150 141 100 141 118 147 107
193 203 211 213 207 190 196 197 201 198 199 201 205 208 204 264 261 262 276 279 299 327 382 389 404 384 394 426 419 380 382 353 287 260 252 128 66 223 189 149 200 134 81 148 140
186 185 196 207 212 215 215 211 215 227 236 226 208 207 216 250 259 258 264 268 276 304 328 376 403 391 410 399 409 392 350 450 323 358 254 168 205 241 244 208 202 201 129 135 82
201 185 186 190 195 215 210 210 214 218 227 216 199 213 245 252 248 248 254 261 104 279 301 337 362 370 370 370 377 387 346 330 339 401 124 170 250 243 239 133 222 127 141 100 144
183 198 194 193 190 211 214 214 213 215 223 218 208 240 233 233 239 193 243 251 248 259 279 296 366 365 409 401 351 365 362 326 317 329 353 289 267 243 149 238 244 247 166 153 203
195 199 198 207 193 193 201 200 204 224 216 210 210 227 221 219 227 232 233 237 251 257 263 276 305 347 362 405 380 351 357 382 327 347 323 335 323 280 153 235 244 239 245 255 201
204 192 198 210 189 195 200 208 211 214 217 206 207 222 213 224 233 221 231 237 242 251 265 76 281 317 372 362 371 438 357 352 357 372 333 345 323 317 275 73 244 243 193 243 247
196 192 198 208 189 189 201 202 207 214 208 200 225 209 216 206 227 232 226 236 246 254 258 270 273 280 319 369 368 361 364 389 343 346 349 109 271 336 258 234 133 185 67 243 247

GFSSW_2pvu_pres_237.txt.gz
Presure
172 111 108 105 118 125 132 106 118 132 126 138 105 107 118 107 114 124 117 106 113 121 104 108 111 114 107 114 114 111 110 115 118 114 115 122 107 128 128 118 101 121 107 101 102
187 106 139 118 122 113 142 204 131 133 139 175 126 111 110 117 116 117 109 105 101 120 126 102 107 103 112 112 112 103 109 114 112 117 116 121 124 134 130 132 124 113 120 111 107
235 221 125 216 186 181 133 126 118 116 107 122 150 113 122 119 125 156 123 117 114 112 110 117 98 104 129 112 113 109 107 110 114 120 107 101 114 121 142 132 158 112 106 122 116
221 192 224 121 223 172 112 120 129 126 125 136 123 134 132 136 127 109 112 113 121 120 118 117 112 101 122 109 107 104 109 109 103 113 117 108 116 122 118 149 150 139 111 108 117
209 220 195 133 156 204 132 141 156 123 122 132 126 127 133 126 124 138 126 126 116 119 108 116 120 105 115 107 112 108 96 114 117 117 108 112 117 113 115 123 139 113 151 124 109
220 222 216 245 221 184 180 127 125 146 120 125 144 128 125 174 118 141 157 126 128 147 125 127 127 124 125 102 107 109 110 107 103 117 110 111 114 122 114 113 111 137 118 164 118
230 217 234 221 224 208 216 219 201 202 197 197 192 193 137 183 128 124 172 175 148 125 132 168 129 128 122 107 102 136 111 120 111 107 105 112 122 113 114 112 116 108 135 124 128
221 221 228 217 230 219 215 204 222 211 203 201 184 178 203 137 188 130 177 148 137 157 139 168 158 138 132 107 125 101 123 110 73 108 111 116 115 118 123 116 121 117 109 119 155
229 222 225 222 226 226 209 227 221 211 206 213 216 206 218 219 199 206 198 152 133 176 149 139 164 177 129 178 135 119 114 142 82 107 114 119 118 123 127 124 119 123 112 125 115
234 239 229 223 220 222 227 230 230 235 232 224 216 208 208 218 215 204 206 210 181 201 149 140 131 131 127 132 127 139 136 123 113 99 109 117 120 131 120 111 129 118 122 117 124
231 217 220 223 226 227 228 235 238 237 238 231 236 247 249 220 220 221 212 213 212 210 206 185 224 202 133 212 137 122 138 145 113 87 122 131 116 107 126 117 126 125 100 120 89
229 232 237 242 251 258 261 262 239 243 239 229 235 235 239 241 246 251 244 238 232 222 224 225 231 176 153 129 116 90 157 137 132 144 108 159 111 116 122 97 112 118 108 107 106
218 221 225 228 232 234 236 238 239 240 241 250 251 250 253 255 262 263 267 259 274 258 263 274 260 239 233 222 192 153 173 144 147 158 138 153 126 113 111 125 101 93 108 130 116
201 200 204 211 213 217 219 219 219 221 221 223 226 232 241 243 244 248 247 247 252 260 272 281 296 311 318 285 248 251 231 183 92 196 129 89 155 84 135 103 118 131 120 130 120
197 203 200 203 210 209 209 209 209 207 206 207 209 215 219 220 228 228 231 230 231 239 249 255 260 270 298 292 315 294 236 89 77 201 184 131 100 81 79 89 100 118 99 121 134
208 211 217 223 227 219 207 207 206 206 216 218 219 221 228 230 232 222 223 225 226 242 296 505 292 510 591 505 453 339 320 272 152 126 163 120 124 186 136 152 131 99 105 87 128
193 194 192 207 200 203 216 217 215 217 207 202 206 200 216 228 232 231 225 223 229 322 310 465 447 465 523 478 447 408 418 197 69 75 169 219 112 109 133 128 135 124 105 116 127
209 207 199 195 204 206 194 198 204 210 212 221 218 217 217 192 225 230 227 229 223 305 322 439 444 431 468 433 441 397 367 389 304 300 268 236 226 72 207 122 131 103 113 127 84
194 199 200 200 202 201 199 203 204 205 205 208 207 209 211 210 211 218 220 226 247 288 295 327 401 422 435 436 409 406 378 348 386 333 302 265 90 75 207 205 139 94 121 188 109
183 195 191 195 193 195 195 198 200 200 201 200 201 203 208 242 218 218 218 256 263 272 286 303 369 410 419 436 388 374 365 363 364 397 306 254 70 259 239 211 92 90 132 114 126
189 189 188 192 197 196 200 211 214 220 229 223 208 228 229 232 226 221 238 250 253 256 273 279 295 382 407 395 416 356 383 352 334 367 65 223 307 257 250 226 142 114 83 89 161
188 184 197 200 194 191 194 193 204 206 217 227 220 227 246 227 223 235 237 238 233 251 258 270 279 304 369 417 397 382 344 339 341 350 350 348 348 285 256 249 239 217 226 146 194
197 185 189 183 190 197 201 196 201 208 202 221 220 214 234 225 212 233 226 242 247 213 258 278 285 286 308 371 399 372 382 361 335 336 350 346 356 459 243 255 108 217 220 160 214
199 192 192 195 190 183 187 199 196 206 207 211 223 218 239 220 217 220 225 222 235 242 251 268 270 283 276 325 379 405 391 351 356 360 349 335 328 192 337 284 260 246 229 128 222
193 191 201 195 188 193 192 195 203 199 200 201 205 224 213 212 216 218 213 224 233 232 245 254 264 256 276 279 322 363 400 377 356 342 334 333 373 343 324 291 276 259 248 117 89
198 186 194 187 199 204 197 214 205 196 191 200 204 212 223 213 194 213 222 216 223 230 233 249 252 260 265 271 279 290 364 342 354 341 338 334 336 345 421 351 308 322 76 82 243
189 191 190 191 196 183 198 204 206 195 195 190 216 200 216 221 209 220 205 216 218 226 229 239 239 251 265 267 268 273 289 372 376 358 360 335 339 336 340 341 365 346 314 294 264

GFSSW_2pvu_pres_243.txt.gz
Presure
206 218 138 131 132 130 141 124 130 133 119 98 131 106 108 112 124 107 118 118 120 121 120 121 109 121 115 108 104 110 106 118 116 116 116 104 114 115 118 113 116 118 129 128 110
236 129 133 148 192 168 127 141 117 113 117 114 106 117 121 107 112 115 121 118 114 112 122 116 106 116 129 115 111 109 112 115 110 110 106 116 113 112 119 120 118 108 123 133 126
159 218 109 135 124 127 132 133 149 105 133 135 114 114 104 113 122 118 97 117 119 114 103 115 110 108 111 119 109 112 130 112 112 107 104 109 103 114 116 120 117 123 143 131 127
216 224 166 114 113 134 133 206 124 132 140 141 134 102 127 113 115 113 105 114 117 122 103 105 113 115 109 110 122 104 118 109 128 114 104 108 101 105 113 112 111 118 123 123 135
235 188 229 157 184 222 144 201 118 139 153 132 133 130 131 111 112 116 115 107 108 119 111 103 104 104 115 113 112 125 118 111 124 124 112 102 107 116 110 121 114 118 124 119 124
206 220 225 152 220 158 185 168 130 135 148 196 140 140 138 146 147 112 109 115 108 110 114 111 121 131 112 119 116 112 119 117 116 123 126 117 109 118 89 121 120 110 117 113 123
237 204 215 219 220 220 220 198 120 198 121 196 205 124 140 120 105 131 108 111 117 109 120 125 119 130 105 113 114 119 115 120 122 134 103 116 119 111 102 107 116 111 117 118 116
238 226 223 215 212 232 220 203 195 198 194 122 182 101 123 157 108 108 104 129 109 113 124 107 127 134 119 127 129 114 118 111 127 128 124 129 108 101 117 114 108 111 102 108 122
223 236 212 209 221 209 206 241 202 196 196 194 160 135 121 176 109 152 178 105 169 144 113 132 115 111 107 138 117 129 126 119 118 121 138 124 108 110 104 122 106 112 126 116 115
228 221 230 228 222 220 214 207 234 200 203 199 197 191 173 129 193 136 129 135 140 130 130 133 170 129 118 121 140 152 131 128 123 125 134 131 134 108 108 108 116 99 107 115 114
248 220 216 220 224 221 215 205 210 211 206 225 209 203 189 190 188 188 130 194 153 120 137 141 135 115 105 121 124 183 132 171 124 129 132 133 132 132 123 140 138 102 95 96 105
232 236 225 218 217 219 221 219 207 228 206 212 235 213 232 208 197 199 196 190 198 160 131 135 197 137 131 132 139 144 125 126 128 128 111 129 129 66 118 95 125 135 84 93 105
235 222 222 228 231 228 224 219 218 221 228 227 209 204 212 220 235 230 209 203 204 206 204 206 207 205 203 171 132 129 182 209 137 108 127 108 176 121 135 104 127 148 142 116 125
213 226 237 238 231 221 223 227 232 235 234 241 229 228 228 226 209 209 209 227 234 216 223 213 209 209 225 207 207 209 210 220 220 207 205 182 151 189 184 83 90 127 124 135 116
205 207 208 215 219 224 231 235 239 245 245 248 252 251 250 247 243 249 256 258 238 236 238 242 270 269 270 272 260 241 246 246 234 228 224 160 222 208 147 189 126 150 113 157 167
207 201 200 209 211 213 215 218 221 223 223 227 231 233 233 234 237 236 235 241 242 245 250 251 254 252 255 257 270 275 279 282 291 292 304 262 180 231 230 211 214 171 60 119 87
196 192 196 207 211 205 207 206 216 214 219 216 217 221 222 222 224 226 226 227 228 230 237 241 241 241 241 243 250 254 261 268 278 290 298 299 303 315 312 253 238 203 207 137 128
189 194 206 208 196 201 211 209 211 210 209 212 213 220 221 227 229 227 226 227 231 227 227 231 241 242 248 243 262 265 349 347 398 467 413 297 297 286 298 200 262 233 202 206 87
187 185 190 196 197 204 208 207 196 197 204 203 201 205 208 212 209 208 209 213 217 218 220 215 234 238 233 234 266 292 347 347 436 430 376 400 412 78 87 204 290 290 241 227 220
194 197 183 184 187 192 196 200 202 206 200 200 203 203 205 203 201 207 210 237 250 249 248 237 251 252 249 250 275 278 324 329 369 419 400 319 373 400 402 375 274 191 89 242 90
192 191 189 189 184 187 186 189 187 193 196 198 196 190 199 205 206 214 203 219 225 244 245 230 244 244 238 240 260 275 301 317 305 414 386 380 369 359 293 376 381 268 271 270 270
214 188 186 194 190 193 192 193 187 194 194 195 196 196 204 205 208 208 216 225 228 228 239 232 226 239 229 236 243 255 273 300 308 302 363 378 361 366 277 83 80 80 351 98 267
194 206 189 182 189 188 195 197 188 191 193 195 194 193 200 196 201 201 204 211 225 219 220 240 220 245 232 222 249 234 254 271 293 302 308 397 375 379 369 78 73 75 86 70 79
188 211 198 190 185 187 187 188 191 194 197 197 196 202 196 199 203 203 206 215 212 221 210 229 223 229 232 227 245 236 249 253 272 280 300 312 392 382 366 361 353 342 250 180 330
189 209 215 199 191 182 186 187 182 185 190 189 195 196 191 197 204 202 193 202 218 203 227 208 231 214 234 230 236 231 240 246 257 285 276 292 307 339 402 361 354 348 351 342 323
202 206 197 198 198 195 190 189 189 186 189 190 195 197 189 200 194 209 197 191 217 218 204 229 227 215 228 227 227 229 236 236 245 256 284 279 285 303 303 396 362 351 341 75 302
218 202 207 208 197 197 195 189 191 187 187 193 198 196 207 198 200 203 217 189 187 217 205 212 206 206 207 216 227 223 228 228 236 245 256 277 283 283 294 309 381 401 372 342 331

GFSSW_2pvu_pres_246.txt.gz
Presure
142 206 185 136 159 122 95 114 118 115 125 117 109 110 108 116 111 123 112 109 108 111 112 109 116 111 110 116 117 100 109 105 109 115 108 121 109 103 114 118 114 116 109 188 134
167 244 201 113 121 133 146 127 128 124 131 104 117 102 113 104 107 110 104 115 119 104 110 115 117 102 111 120 110 110 114 111 95 104 110 114 116 121 110 116 118 118 115 116 118
124 179 126 133 200 201 135 112 128 129 129 128 112 110 115 110 106 110 103 109 113 115 106 110 118 114 118 113 113 120 122 101 115 103 104 92 113 114 114 119 112 113 117 123 109
134 221 229 136 103 126 145 141 140 198 120 118 118 140 117 105 103 117 100 98 106 103 117 110 118 115 108 107 110 119 109 115 122 108 117 102 127 110 110 103 112 110 104 119 118
257 221 215 233 155 213 197 159 193 128 137 141 130 141 137 105 116 108 102 125 106 116 122 105 100 109 116 102 107 112 120 120 118 122 104 110 104 108 131 106 99 110 116 117 102
252 221 214 228 162 217 217 131 210 181 140 115 117 123 138 129 122 116 120 98 109 113 122 121 107 121 114 113 104 104 124 119 117 120 118 105 102 113 120 116 107 115 115 109 107
240 236 215 208 202 230 217 210 223 162 187 135 134 137 115 119 142 139 140 122 91 106 136 118 116 109 118 112 107 107 109 120 123 117 117 109 104 114 106 99 123 110 130 129 117
226 238 219 211 209 210 228 214 203 208 151 118 199 131 127 135 136 141 135 138 143 99 131 110 121 117 110 115 112 109 109 115 136 117 120 123 120 105 103 109 103 82 105 106 109
240 229 230 211 228 204 220 230 220 188 157 112 178 125 140 125 165 126 135 145 135 144 132 144 125 126 116 115 111 116 114 116 120 120 115 124 96 132 122 106 107 101 97 116 110
239 242 228 229 208 232 197 215 217 226 218 207 209 130 133 122 162 135 136 140 195 199 175 126 124 117 132 109 142 111 101 123 125 119 126 127 124 125 106 107 121 112 112 108 104
244 268 231 222 235 218 223 194 210 215 213 220 134 212 201 196 162 171 117 121 132 205 121 117 103 104 113 123 137 136 132 93 127 123 138 125 118 109 135 133 125 126 109 109 92
241 255 264 230 218 227 225 219 194 213 210 215 213 207 205 200 191 198 139 135 138 179 200 131 129 128 132 134 145 109 109 146 151 130 119 137 113 116 113 132 139 127 122 120 130
226 236 244 253 223 215 219 225 211 197 207 209 226 209 210 217 204 203 191 198 179 193 198 120 117 127 134 145 134 156 200 171 126 192 117 73 130 120 123 131 124 118 79 95 105
231 229 227 235 242 232 214 215 222 224 224 222 218 214 221 208 208 210 193 193 196 195 197 197 193 198 142 196 197 136 141 191 191 142 138 172 137 196 119 133 119 132 81 154 125
216 218 229 244 223 222 231 218 215 219 217 219 224 224 222 202 207 210 212 218 209 208 203 205 207 197 195 196 197 197 202 204 203 204 190 147 212 205 125 128 131 101 138 137 83
181 211 216 217 221 228 234 235 226 221 224 225 230 230 230 225 224 235 237 245 222 216 213 213 214 217 225 225 222 220 261 261 241 243 226 224 220 117 223 219 210 165 206 176 150
205 190 200 206 208 213 215 216 221 224 229 230 232 232 234 234 234 232 233 238 240 245 247 249 247 248 245 248 254 253 257 258 262 269 266 279 287 293 312 178 137 232 215 213 214
193 188 204 203 197 210 211 211 213 213 215 217 218 219 220 221 220 221 226 228 229 233 236 242 244 241 243 246 245 248 249 250 252 255 260 274 281 278 287 298 309 315 303 232 230
193 201 184 180 204 205 206 210 212 214 213 214 212 215 218 220 220 221 226 226 228 229 230 231 229 229 231 232 236 235 235 241 247 256 278 354 440 444 432 418 340 287 296 83 285
209 196 178 193 196 199 191 191 197 211 211 211 210 209 208 209 210 210 211 211 211 211 216 224 227 223 261 254 258 256 250 253 250 262 333 356 348 426 419 394 385 374 312 279 281
188 184 202 195 198 191 192 198 201 203 205 207 207 212 210 207 206 204 207 204 206 220 226 221 236 235 248 252 249 240 237 244 232 257 283 326 339 325 415 409 388 383 349 363 148
180 199 208 196 192 195 184 201 186 193 199 199 199 198 196 196 198 197 197 211 208 202 217 222 220 234 233 255 246 235 239 245 235 256 271 309 303 325 326 404 66 381 359 384 111
189 176 176 208 203 191 194 191 188 185 186 190 188 190 192 190 191 199 202 210 209 201 214 206 219 233 215 222 244 235 241 237 233 251 261 274 300 294 309 326 338 385 369 328 324
197 174 185 178 193 202 193 187 193 190 192 190 182 190 199 191 189 203 200 203 203 212 204 217 216 220 224 222 242 232 228 233 235 243 244 260 265 287 293 298 307 207 238 163 214
203 191 179 185 187 186 206 197 185 189 193 191 197 196 197 196 197 197 204 197 198 198 199 201 204 206 216 216 221 224 225 231 243 239 233 242 251 263 269 283 302 287 190 71 67
193 182 187 185 175 169 176 203 196 189 187 188 191 188 190 188 193 197 188 200 186 198 200 216 220 217 194 209 225 216 217 225 229 233 241 235 239 258 256 275 282 315 289 304 337
196 190 200 190 188 180 190 189 212 193 194 187 187 189 187 192 190 191 195 201 202 194 195 213 217 212 196 225 229 238 219 232 222 228 227 231 234 237 249 270 288 307 313 281 293

GFSSW_2pvu_pres_249.txt.gz
Presure
162 212 126 143 143 127 131 110 122 124 130 104 116 128 107 111 110 111 109 112 103 112 107 103 110 104 118 111 109 112 118 94 103 106 109 115 112 118 110 98 108 117 111 124 107
267 201 242 240 196 127 151 138 142 141 118 117 113 114 122 107 110 120 111 108 101 105 115 104 107 109 115 110 115 110 97 116 107 105 102 107 110 114 106 118 88 106 121 113 120
305 244 233 228 195 145 161 143 144 148 123 116 116 117 117 120 107 116 109 110 117 106 106 114 105 101 109 115 111 111 114 96 86 111 107 91 102 107 110 108 113 110 105 107 115
299 260 213 226 220 225 135 143 126 147 123 110 119 111 115 120 108 116 114 120 113 110 128 113 114 103 103 113 116 127 115 110 116 104 119 122 115 111 106 109 112 106 114 110 110
292 256 262 244 226 225 175 124 142 133 142 189 143 104 116 115 113 108 122 111 121 113 112 104 109 111 108 103 123 116 116 113 115 109 102 106 106 100 111 115 116 114 106 104 111
166 219 257 250 234 186 206 211 136 143 121 203 133 131 123 132 108 111 109 117 116 119 115 108 98 113 101 116 104 120 117 105 104 104 93 106 105 116 108 111 118 118 117 119 103
238 254 250 244 238 176 216 129 164 170 153 194 153 130 148 139 132 132 115 137 113 120 117 105 103 116 115 128 116 105 112 120 114 96 107 103 103 106 105 111 111 97 101 113 100
240 253 247 227 250 221 217 212 148 197 197 148 132 135 140 129 123 129 122 118 125 141 139 138 106 104 118 110 121 114 107 116 114 116 103 67 111 122 106 109 119 113 119 93 105
241 244 237 228 245 229 211 218 232 175 211 134 102 158 173 147 167 140 141 141 129 132 140 123 114 107 103 107 110 123 114 114 116 119 114 112 114 116 126 114 109 116 97 117 110
263 222 247 221 240 232 213 212 219 236 213 212 175 193 178 130 147 157 126 104 121 125 133 115 127 139 145 126 106 133 123 116 115 117 108 120 114 95 114 128 114 114 115 110 111
240 242 231 229 230 237 217 203 211 217 225 234 217 209 190 137 122 130 210 192 134 172 134 128 144 135 148 133 140 146 142 115 128 118 106 117 118 113 121 121 132 128 131 113 114
229 234 232 247 218 227 226 210 204 204 200 215 223 212 215 192 146 200 125 121 139 139 136 131 128 138 151 124 140 130 144 142 120 89 122 110 118 143 124 115 108 124 121 125 93
212 225 243 240 243 220 224 224 220 204 207 202 208 227 221 210 209 211 119 169 164 126 134 138 175 138 142 138 147 139 143 198 156 163 129 115 121 138 127 139 143 149 113 142 136
246 219 233 243 251 257 229 223 225 215 203 227 189 207 213 223 212 225 216 221 180 185 190 130 197 126 132 122 177 181 138 143 135 115 111 109 99 91 132 125 149 118 143 149 111
209 228 222 226 241 246 253 229 218 222 225 211 215 221 192 196 211 213 216 218 219 208 198 207 203 200 195 203 208 197 125 139 199 147 116 174 118 127 141 209 171 194 206 142 190
202 213 219 215 216 228 239 246 231 217 219 225 226 227 217 211 201 215 215 212 211 210 217 209 205 201 198 202 197 201 143 202 199 151 199 202 203 163 208 208 204 206 209 188 133
204 193 210 215 222 228 222 223 228 234 229 216 215 218 224 225 226 228 228 225 223 220 215 207 209 214 217 213 207 204 199 200 205 208 216 217 217 223 220 213 214 215 211 214 215
203 200 190 209 211 214 220 227 228 211 217 219 220 222 219 219 224 227 228 228 230 241 225 227 242 238 244 248 245 248 241 242 242 239 243 246 262 265 276 279 285 292 296 292 286
194 194 189 202 190 207 211 214 214 218 222 225 229 230 228 230 233 235 232 232 233 231 231 233 234 235 235 238 244 246 247 249 254 255 252 251 254 256 276 289 302 314 436 244 308
184 200 196 198 196 199 198 205 208 210 214 216 216 217 219 220 219 220 218 221 225 224 229 232 231 231 230 232 234 238 241 262 265 267 266 262 261 272 274 314 374 358 433 411 408
190 192 182 203 198 184 194 205 205 198 207 212 213 211 210 211 211 216 223 223 225 223 220 217 217 216 218 220 223 243 239 250 258 258 251 254 252 260 271 318 319 328 329 358 392
186 187 193 194 205 194 196 184 177 181 207 210 208 207 206 204 206 211 212 215 212 211 205 207 207 209 212 216 232 232 224 227 236 255 248 244 247 246 256 277 299 314 313 321 345
194 191 189 191 187 202 191 191 191 198 200 198 193 201 207 207 208 205 206 206 207 207 206 213 205 205 208 225 229 213 234 223 244 241 241 250 243 242 246 257 271 288 306 324 258
196 190 183 187 189 188 190 198 196 195 178 199 197 196 198 200 197 195 196 198 201 199 200 212 207 202 222 218 216 236 232 228 234 232 232 233 241 236 240 246 252 263 309 307 335
196 197 186 177 187 185 187 211 199 190 197 198 186 184 190 193 185 188 188 191 195 198 197 210 206 198 212 212 220 213 228 227 213 234 219 224 229 228 232 240 242 249 261 305 300
213 192 199 196 177 172 195 189 177 201 197 190 196 197 193 196 190 188 189 189 187 205 188 198 205 211 209 207 215 225 228 239 196 240 247 220 222 235 225 237 232 249 247 271 303
188 208 192 192 196 181 179 187 181 188 207 203 198 191 190 195 193 192 197 192 191 199 196 197 196 205 205 204 200 214 233 222 217 235 238 240 220 222 227 229 227 228 254 246 275

GFSSW_2pvu_pres_252.txt.gz
Presure
149 287 244 136 120 168 172 225 120 125 111 125 103 121 121 120 111 111 115 106 121 114 116 107 107 102 99 103 104 99 102 107 109 109 106 113 112 112 113 120 115 105 111 119 118
284 381 231 224 148 185 139 225 143 130 128 120 125 112 111 122 111 113 109 106 117 114 103 115 118 114 111 110 110 108 107 107 105 112 108 105 105 107 112 112 109 118 110 110 110
396 380 268 237 262 122 231 154 144 144 114 108 106 141 117 96 126 114 110 102 109 107 114 97 109 115 107 110 112 106 111 110 108 105 111 114 110 101 106 103 110 112 114 113 116
389 390 302 301 208 225 158 129 213 219 154 112 114 120 127 115 124 129 119 112 114 118 111 100 102 105 116 91 109 112 111 101 110 106 108 99 104 114 102 102 103 101 109 109 111
396 385 362 290 254 213 201 124 201 193 120 145 127 113 127 127 122 114 118 130 127 115 121 110 110 112 109 113 109 109 103 111 109 101 107 115 112 107 99 118 110 116 121 115 106
371 381 345 272 255 233 213 187 227 138 146 216 127 140 119 116 123 112 121 121 123 117 115 108 103 116 109 121 112 115 109 104 103 115 105 108 115 116 114 116 115 115 113 116 119
394 376 243 253 254 240 253 242 215 210 148 199 176 147 136 139 119 106 110 123 114 119 111 114 114 118 110 112 107 108 113 102 112 122 108 109 101 108 112 107 111 116 115 118 118
362 342 222 241 271 244 235 239 205 225 202 193 136 140 150 141 140 129 128 106 113 106 110 116 122 117 122 117 101 105 103 110 96 110 107 120 108 114 111 105 115 113 116 80 135
190 92 217 270 258 239 232 247 230 217 195 213 175 159 151 117 154 159 132 124 120 106 108 119 108 118 106 118 120 114 113 114 116 107 108 115 113 107 110 107 89 102 112 115 93
191 266 222 258 235 122 237 220 253 223 216 217 204 133 177 178 174 119 139 141 144 123 123 122 109 139 116 105 116 125 122 102 129 105 124 113 115 113 120 103 110 115 120 116 112
227 257 246 230 225 229 242 231 249 230 223 204 215 203 151 145 195 93 126 116 197 114 140 131 136 130 113 114 120 146 133 122 121 109 104 113 129 121 101 113 123 108 112 115 111
225 241 255 224 234 250 236 225 217 241 220 209 211 218 202 154 183 166 146 187 209 201 208 124 119 129 124 122 143 133 141 144 124 117 110 136 105 104 125 121 106 105 109 122 115
235 220 238 246 216 238 227 216 216 238 230 220 210 190 214 205 204 165 194 196 201 154 166 162 144 139 113 141 140 121 125 131 122 127 139 129 134 133 147 124 136 114 103 107 116
207 226 219 233 235 215 236 217 216 228 227 224 212 202 209 222 206 198 202 205 200 184 204 136 160 139 139 133 125 138 141 137 131 134 140 139 138 133 119 137 142 142 143 103 102
205 213 219 218 233 230 232 228 218 221 226 225 217 206 201 201 222 216 201 217 208 155 131 193 200 132 192 131 134 130 144 126 181 123 129 139 138 154 148 140 145 112 136 139 98
204 203 219 226 217 230 237 234 234 215 222 224 221 204 201 201 231 212 217 226 209 205 205 210 201 196 197 131 186 174 146 129 194 171 140 114 115 124 171 150 158 137 111 121 107
196 204 197 216 230 220 239 242 242 236 213 214 222 223 221 208 203 198 213 198 212 225 223 220 218 208 223 218 208 206 210 207 207 176 204 206 201 208 199 171 204 177 165 152 118
190 203 203 199 214 232 216 232 241 245 244 218 212 217 219 220 219 204 205 204 198 215 206 207 218 218 218 220 219 224 221 219 221 218 214 211 213 216 211 209 213 210 214 214 200
196 193 195 204 197 210 225 209 220 229 236 241 225 214 211 209 217 223 223 227 225 219 205 205 202 212 216 221 225 228 225 223 221 217 215 218 228 257 254 253 256 260 267 267 271
203 194 199 196 204 206 205 214 223 212 220 224 228 230 223 219 211 211 214 216 219 225 224 224 225 229 232 234 236 235 234 235 234 235 240 241 243 246 247 277 277 276 279 284 292
197 194 193 193 198 203 189 203 204 215 220 221 216 214 215 218 217 217 218 218 228 218 226 233 232 232 232 230 227 227 231 232 231 234 235 238 245 263 267 264 265 259 263 265 279
204 197 192 201 200 202 197 193 208 205 209 210 210 212 212 222 222 223 223 223 220 221 221 220 219 225 228 223 226 221 224 224 223 235 234 254 242 237 243 257 254 252 251 254 257
210 198 204 195 188 195 197 194 191 197 197 205 208 211 211 211 212 213 215 214 216 220 227 229 221 214 212 214 214 213 212 213 219 228 210 220 253 251 251 247 239 250 244 247 253
219 206 201 197 199 197 193 197 199 195 196 203 195 202 205 209 210 208 208 208 209 210 204 206 212 207 206 202 204 209 209 215 226 222 218 243 251 226 239 236 238 233 240 232 244
215 193 209 203 187 193 199 192 198 197 196 183 184 186 185 208 196 205 206 210 210 216 207 201 204 204 203 200 201 208 218 216 212 215 221 233 240 262 214 261 230 236 229 235 239
221 216 193 201 197 193 189 188 202 199 198 194 197 198 184 200 196 196 195 198 200 201 207 199 193 197 202 202 211 209 212 216 215 213 222 237 231 223 234 244 240 233 220 228 233
226 219 205 207 200 202 189 193 190 188 201 196 193 191 198 197 197 199 201 200 200 195 198 197 194 190 198 200 199 205 206 208 206 215 214 214 238 252 253 241 236 226 219 225 214

GFSSW_2pvu_pres_258.txt.gz
Presure
234 188 219 229 202 203 121 136 213 186 143 146 116 116 114 132 117 111 118 126 115 115 116 113 104 101 104 112 101 108 117 115 116 113 106 118 116 112 109 105 110 110 113 117 121
231 224 217 214 216 206 245 186 224 221 160 149 177 111 112 122 125 116 125 117 125 122 115 122 121 116 110 116 112 120 109 105 111 111 104 101 113 113 111 111 112 110 111 115 115
170 227 174 225 221 210 233 208 150 255 126 131 133 131 124 111 123 114 94 123 123 120 125 115 120 111 119 118 116 112 110 116 113 115 105 108 118 114 110 110 104 113 109 110 111
245 243 230 223 200 224 206 228 138 199 167 202 142 121 119 127 114 95 112 124 124 124 121 122 116 118 113 117 114 120 102 110 106 114 119 105 103 99 120 108 108 107 103 111 103
240 241 224 205 234 222 212 241 243 218 235 140 119 133 107 138 115 123 128 118 123 132 120 115 123 104 110 106 103 98 112 112 113 104 123 106 103 102 115 116 113 104 117 111 103
233 240 243 206 224 232 226 241 238 237 203 140 208 130 137 174 119 113 116 128 121 123 118 125 109 127 128 105 96 112 110 109 104 104 118 115 113 112 119 119 120 116 117 106 101
234 234 168 232 233 240 242 242 264 256 245 234 136 131 212 160 205 116 110 104 118 117 122 122 124 115 115 106 112 118 99 104 116 115 110 104 102 116 122 116 115 118 106 116 116
228 229 224 232 230 240 263 269 379 334 288 283 221 173 145 151 148 129 93 120 117 122 111 127 116 104 123 124 104 117 117 117 113 115 105 114 102 101 116 112 107 106 116 116 117
232 226 220 224 234 244 379 372 223 350 290 278 216 174 181 204 155 159 157 118 110 113 114 103 103 124 115 109 110 105 111 114 112 116 110 111 109 112 118 115 102 100 106 116 109
230 225 219 222 231 309 363 362 346 324 277 271 249 230 245 119 183 128 104 172 118 120 120 123 124 115 101 125 116 114 109 110 114 115 97 105 109 110 115 106 103 99 104 107 106
229 214 217 220 235 302 338 340 328 299 267 263 255 213 213 198 184 197 138 104 150 128 119 112 112 129 118 112 113 128 120 120 121 121 101 122 105 114 114 103 102 109 109 108 108
225 213 216 217 228 270 316 315 304 274 262 252 253 221 238 218 149 131 176 203 182 188 112 126 111 133 125 133 118 107 107 118 120 132 119 107 103 112 109 117 116 116 116 114 121
224 215 77 209 224 245 282 286 276 258 247 246 248 241 204 212 222 225 196 155 186 190 192 152 112 128 135 125 126 129 116 122 112 121 120 126 124 109 108 106 112 113 108 112 111
221 216 215 214 225 236 250 260 253 240 233 254 241 242 210 204 204 200 211 181 131 186 142 137 195 138 111 119 119 116 115 124 123 121 114 114 113 119 111 110 96 104 108 114 104
219 219 134 208 216 215 245 231 237 223 233 244 242 233 232 244 199 201 205 201 190 193 194 172 182 185 171 139 121 144 108 111 122 122 120 121 122 106 122 115 118 115 123 102 115
218 226 212 217 211 224 230 248 190 215 221 247 231 228 219 233 215 193 214 209 206 193 137 136 179 145 116 141 179 120 134 130 125 114 123 121 130 130 124 124 132 125 123 130 119
224 181 215 213 213 213 224 238 245 207 115 243 226 179 223 216 226 229 193 187 195 205 201 192 179 132 184 186 164 171 137 157 148 147 163 129 126 130 91 116 141 129 135 115 109
208 224 224 212 212 213 220 227 245 228 236 235 226 223 225 227 215 228 231 228 186 202 196 198 195 197 198 191 192 129 137 147 197 191 120 146 149 145 133 118 126 143 162 136 133
235 226 224 184 214 218 219 224 219 234 221 225 227 221 220 217 224 222 213 227 231 189 223 197 196 197 190 188 193 192 190 192 192 145 142 135 118 163 183 139 188 129 125 130 151
301 298 231 226 210 214 221 216 220 224 236 218 222 218 215 231 222 218 218 211 230 239 208 218 213 193 194 197 198 193 194 194 190 189 188 192 188 185 188 195 205 175 225 237 246
301 300 257 226 231 218 216 204 209 228 223 229 220 217 233 231 224 224 222 218 222 228 227 229 185 221 199 186 193 196 198 195 196 198 201 209 207 203 206 225 234 231 224 223 225
324 324 294 234 235 224 208 205 204 211 226 225 230 225 212 230 222 220 217 212 211 221 228 228 225 212 215 212 215 217 207 207 215 213 213 214 237 235 217 209 221 219 211 248 250
309 335 294 286 233 223 207 204 208 210 210 225 218 224 224 219 228 217 213 207 210 222 222 220 222 223 223 214 208 206 203 201 207 210 208 210 205 204 208 230 235 235 238 234 232
338 333 315 332 233 227 210 205 207 210 211 210 222 215 229 227 219 226 222 213 210 214 217 220 217 217 219 219 215 208 205 206 202 211 222 220 227 227 235 228 231 228 225 227 226
338 333 315 335 248 226 220 210 206 207 208 213 211 225 212 232 231 226 224 221 214 206 209 212 216 220 220 219 220 221 222 222 221 219 221 219 231 226 232 227 222 219 220 235 230
346 341 321 324 296 237 228 208 212 205 208 205 211 203 221 207 221 228 227 231 227 217 213 209 209 209 211 214 214 214 214 213 215 216 225 222 221 226 213 216 214 213 212 217 219
350 346 352 326 317 253 221 212 200 206 208 206 201 206 209 220 208 213 223 227 231 234 232 229 224 219 216 217 217 216 216 217 223 217 217 216 223 216 213 203 208 203 205 208 209